Location: Alladorf
(49.9620°N, 11.3790°E)
Time: 20:59:18
(UTC+00:00)

Nadezhda 3 Rocket - Pass Details

Date: 29 November 2020
Orbit: 956 x 1000 km, 82.9° (Epoch: 24 January)

Event Time Altitude Azimuth Distance (km) Brightness Sun altitude
Rises 04:40:09 0° 351° (N) 3,722 6.9 -19.9°
Reaches altitude 10° 04:42:43 10° 353° (N) 2,763 6.2 -19.5°
Maximum altitude 04:49:03 73° 78° (ENE) 1,030 4.2 -18.5°
Drops below altitude 10° 04:55:16 10° 164° (SSE) 2,713 6.7 -17.5°
Sets 04:57:46 0° 166° (SSE) 3,650 7.4 -17.1°
